TimeEDT,TemperatureF,Dew PointF,Humidity,Sea Level PressureIn,VisibilityMPH,Wind Direction,Wind SpeedMPH,Gust SpeedMPH,PrecipitationIn,Events,Conditions,WindDirDegrees,DateUTC
12:52 AM,39.0,21.9,50,30.02,10.0,NNE,4.6,-,N/A,,Overcast,30,2012-03-31 04:52:00
1:52 AM,39.0,19.9,46,30.02,10.0,Calm,Calm,-,N/A,,Overcast,0,2012-03-31 05:52:00
2:52 AM,39.0,24.1,55,30.01,10.0,Calm,Calm,-,N/A,,Overcast,0,2012-03-31 06:52:00
3:52 AM,37.9,27.0,65,29.99,10.0,Calm,Calm,-,N/A,,Overcast,0,2012-03-31 07:52:00
4:52 AM,37.0,25.0,62,29.98,10.0,ENE,5.8,-,N/A,,Overcast,60,2012-03-31 08:52:00
5:52 AM,37.0,26.1,65,29.97,10.0,Calm,Calm,-,N/A,,Overcast,0,2012-03-31 09:52:00
6:52 AM,37.0,26.1,65,29.98,10.0,North,3.5,-,N/A,,Overcast,10,2012-03-31 10:52:00
7:52 AM,37.0,25.0,62,29.98,10.0,NE,8.1,-,N/A,,Overcast,40,2012-03-31 11:52:00
8:52 AM,36.0,25.0,64,30.00,10.0,ENE,6.9,-,N/A,,Overcast,60,2012-03-31 12:52:00
9:52 AM,36.0,28.0,73,30.00,10.0,NE,5.8,-,N/A,,Overcast,50,2012-03-31 13:52:00
10:52 AM,37.0,28.0,70,29.99,10.0,NE,8.1,-,N/A,,Overcast,40,2012-03-31 14:52:00
11:52 AM,39.0,27.0,62,29.98,10.0,NE,6.9,-,N/A,,Overcast,40,2012-03-31 15:52:00
12:52 PM,42.1,26.1,53,29.95,10.0,Variable,4.6,-,N/A,,Overcast,0,2012-03-31 16:52:00
1:52 PM,45.0,26.1,48,29.93,10.0,NNE,4.6,-,N/A,,Overcast,20,2012-03-31 17:52:00
2:52 PM,46.9,25.0,42,29.90,10.0,NNE,9.2,-,N/A,,Overcast,20,2012-03-31 18:52:00
3:52 PM,46.9,25.0,42,29.88,10.0,NNE,6.9,-,N/A,,Overcast,20,2012-03-31 19:52:00
4:52 PM,46.9,26.1,44,29.87,10.0,East,5.8,-,N/A,,Overcast,80,2012-03-31 20:52:00
5:52 PM,46.0,25.0,44,29.88,10.0,Calm,Calm,-,N/A,,Overcast,0,2012-03-31 21:52:00
6:52 PM,46.0,27.0,47,29.88,10.0,Calm,Calm,-,N/A,,Overcast,0,2012-03-31 22:52:00
8:52 PM,43.0,30.9,62,29.90,10.0,Calm,Calm,-,N/A,,Overcast,0,2012-04-01 00:52:00
9:52 PM,42.1,30.9,65,29.90,10.0,SSE,3.5,-,N/A,,Overcast,150,2012-04-01 01:52:00
10:52 PM,39.9,30.9,70,29.90,10.0,SSE,5.8,-,N/A,,Overcast,160,2012-04-01 02:52:00
11:52 PM,36.0,30.9,82,29.90,10.0,Calm,Calm,-,N/A,,Clear,0,2012-04-01 03:52:00